Regional Weather Roundup
Issued by NWS Albany, NY

Home | Current Version | Previous Version | Text Only | Print | Product List | Glossary Off
Versions: 1 2 3 4 5 6 7 8 9 10 11 12 13 14 15 16 17 18 19 20 21 22 23 24 25 26 27 28 29 30 31 32 33 34 35 36 37 38 39 40 41 42 43 44 45 46 47 48 49 50

000
ASUS41 KALY 050310
RWRALY

NEW YORK STATE HOURLY WEATHER ROUNDUP
NATIONAL WEATHER SERVICE ALBANY NY
1100 PM EDT SAT JUL 04 2015

NOTE: "FAIR" INDICATES FEW OR NO CLOUDS BELOW 12,000 FEET WITH NO
SIGNIFICANT WEATHER AND/OR NO OBSTRUCTIONS TO VISIBILITY.

NYZ032-033-038>043-046>054-057>066-NYZ062>081-050400-
EAST


CITY           SKY/WX    TMP DP  RH WIND       PRES   REMARKS
ALBANY         PTCLDY    62  59  90 SE3       30.01R
GLENS FALLS    PTCLDY    60  58  92 N5        30.01R
POUGHKEEPSIE   CLEAR     60  58  92 CALM      30.01R FOG
NEWBURGH       CLEAR     61  61 100 CALM      30.03R
MONTGOMERY     CLEAR     60  59  96 CALM      30.02R FOG
WHITE PLAINS   CLEAR     64  60  87 CALM      30.01R
ISLIP          MOCLDY    65  53  65 CALM      30.00R
NEW YORK CITY  PTCLDY    72  58  61 S6        30.00R
CENTRAL PARK   MOCLDY    72  53  51 CALM      30.04R
$$

NYZ005>009-017-018-044>046-055-056-050400-
CENTRAL


CITY           SKY/WX    TMP DP  RH WIND       PRES   REMARKS
FULTON         CLEAR     57  53  86 CALM      30.01R
SYRACUSE       PTCLDY    66  54  65 W3        30.01R
ROME           CLOUDY    68  60  75 SW3       30.02R
ELMIRA         FOG       62  62 100 CALM      30.03R VSB 3/4
BINGHAMTON     PTCLDY    60  58  92 SW5       30.05R
MONTICELLO     CLOUDY    61  59  94 CALM      30.06S
$$

NYZ026>034-041>043-050400-
NORTH


CITY           SKY/WX    TMP DP  RH WIND       PRES   REMARKS
WATERTOWN      CLEAR     61  57  87 S5        29.98R
FORT DRUM      NOT AVBL
MASSENA        PTCLDY    62  58  86 CALM      29.96R
SARANAC LAKE   FOG       58  57  97 CALM      30.00S VSB 1/4
PLATTSBURGH    CLOUDY    62  61  96 S3        29.96R
$$

NYZ001>004-010>016-019>021-050400-
WEST


CITY           SKY/WX    TMP DP  RH WIND       PRES   REMARKS
NIAGARA FALLS  CLEAR     64  57  78 S8        30.01R
BUFFALO        PTCLDY    65  57  75 SW8       30.03R
DUNKIRK        CLEAR     61  54  77 SW6       30.04R
JAMESTOWN      CLEAR     61  48  63 CALM      30.08R
WELLSVILLE     CLEAR     58  52  80 MISG      30.10R
ROCHESTER      CLEAR     62  57  83 SW5       30.01R
PENN YAN       PTCLDY    62  61  96 SW3       30.03S FOG
$$

             KEY
       WCI = WIND CHILL INDEX
       VSB = VISIBILITY
       HX  = HEAT INDEX
$$


USA.gov is the U.S. government's official web portal to all federal, state and local government web resources and services.